Change the Weather History Date:

Sunday, September 15, 2013

  Actual Average Record
Temperature  
Mean Temperature 65 °F -  
Max Temperature 68 °F 75 °F 87 °F (1998)
Min Temperature 62 °F 50 °F 32 °F (2007)
Growing Degree Days 15 (Base 50)    
Moisture  
Dew Point 56 °F    
Average Humidity 75    
Maximum Humidity 100    
Minimum Humidity 56    
Precipitation  
Precipitation 0.05 in - - ()
Sea Level Pressure  
Sea Level Pressure 30.03 in    
Wind  
Wind Speed 11 mph (NNE)    
Max Wind Speed 20 mph    
Max Gust Speed 26 mph    
Visibility 10 miles    
Events Rain    
Averages and records for this station are not official NWS values.
T = Trace of Precipitation, MM = Missing Value Source: NWS Daily Summary

Daily Weather History Graph

Daily Weather History Graph

Search for Another Location

Airport or City:

Trip Planner

Search our weather history database for the weather conditions in past years. The results will help you decide how hot, cold, wet, or windy it might be!

Date:

Astronomy

Sep. 15, 2013 Rise Set
Actual Time 7:00 AM CDT 7:28 PM CDT
Civil Twilight 6:33 AM CDT 7:56 PM CDT
Nautical Twilight 6:00 AM CDT 8:29 PM CDT
Astronomical Twilight 5:26 AM CDT 9:02 PM CDT
Moon 4:59 PM CDT (9/15) 2:37 AM CDT (9/15)
Length of Visible Light 13h 23m
Length of Day
12h 28m
Waxing Gibbous, 82% of the Moon is Illuminated
Sep 15
Waxing Gibbous
Sep 19
Full
Sep 26
Last Quarter
Oct 4
New
Oct 11
First Quarter

Hourly Weather History & Observations

Time (CDT) Temp. Dew Point Humidity Pressure Visibility Wind Dir Wind Speed Gust Speed Precip Events Conditions
12:15 AM 66.2 °F 51.8 °F 60% 29.91 in 10.0 mi South 6.9 mph - N/A   Overcast
12:35 AM 68.0 °F 51.8 °F 56% 29.90 in 10.0 mi South 9.2 mph - N/A   Overcast
12:55 AM 68.0 °F 51.8 °F 56% 29.90 in 10.0 mi South 9.2 mph - N/A   Overcast
1:15 AM 68.0 °F 51.8 °F 56% 29.89 in 10.0 mi South 11.5 mph - N/A   Overcast
1:35 AM 68.0 °F 51.8 °F 56% 29.89 in 10.0 mi South 11.5 mph - N/A   Overcast
1:55 AM 68.0 °F 51.8 °F 56% 29.89 in 10.0 mi South 11.5 mph - N/A   Overcast
2:15 AM 68.0 °F 53.6 °F 60% 29.89 in 10.0 mi South 10.4 mph - N/A   Overcast
2:35 AM 68.0 °F 51.8 °F 56% 29.88 in 10.0 mi South 11.5 mph - N/A   Overcast
2:55 AM 68.0 °F 51.8 °F 56% 29.88 in 10.0 mi SSW 10.4 mph - N/A   Overcast
3:15 AM 68.0 °F 51.8 °F 56% 29.88 in 10.0 mi SSW 13.8 mph - N/A   Overcast
3:35 AM 68.0 °F 53.6 °F 60% 29.87 in 10.0 mi SSW 18.4 mph 26.5 mph N/A   Overcast
3:55 AM 66.2 °F 55.4 °F 68% 29.87 in 10.0 mi SSW 16.1 mph - N/A   Overcast
4:15 AM 64.4 °F 55.4 °F 73% 29.88 in 10.0 mi SSW 10.4 mph 16.1 mph N/A   Overcast
4:35 AM 64.4 °F 57.2 °F 77% 29.87 in 10.0 mi SSW 8.1 mph 15.0 mph N/A   Overcast
4:55 AM 62.6 °F 57.2 °F 82% 29.87 in 10.0 mi SSW 10.4 mph - N/A   Overcast
5:15 AM 62.6 °F 59.0 °F 88% 29.87 in 10.0 mi SSW 11.5 mph - N/A   Overcast
5:35 AM 62.6 °F 59.0 °F 88% 29.88 in 10.0 mi SSW 10.4 mph - N/A   Overcast
5:55 AM 62.6 °F 59.0 °F 88% 29.89 in 10.0 mi SSW 12.7 mph - N/A   Overcast
6:15 AM 62.6 °F 59.0 °F 88% 29.89 in 10.0 mi SSW 12.7 mph - N/A   Overcast
6:35 AM 62.6 °F 60.8 °F 94% 29.90 in 9.0 mi SW 13.8 mph - N/A   Light Drizzle
6:55 AM 62.6 °F 60.8 °F 94% 29.91 in 5.0 mi SW 10.4 mph - 0.03 in Rain Light Rain
7:15 AM 62.6 °F 60.8 °F 94% 29.90 in 4.0 mi South 4.6 mph - N/A Rain Light Rain
7:35 AM 62.6 °F 60.8 °F 94% 29.89 in 7.0 mi Calm Calm - N/A   Mostly Cloudy
7:55 AM 62.6 °F 60.8 °F 94% 29.89 in 5.0 mi SSW 5.8 mph - 0.02 in   Light Drizzle
8:15 AM 62.6 °F 60.8 °F 94% 29.90 in 6.0 mi SSW 5.8 mph 11.5 mph N/A   Mostly Cloudy
8:35 AM 62.6 °F 62.6 °F 100% 29.90 in 6.0 mi SSW 5.8 mph - N/A   Mostly Cloudy
8:55 AM 64.4 °F 62.6 °F 94% 29.92 in 5.0 mi SSW 5.8 mph - N/A   Overcast
9:15 AM 64.4 °F 62.6 °F 94% 29.93 in 7.0 mi West 6.9 mph - N/A   Overcast
9:35 AM 66.2 °F 62.6 °F 88% 29.95 in 9.0 mi NW 8.1 mph 16.1 mph N/A   Overcast
9:55 AM 66.2 °F 62.6 °F 88% 29.96 in 10.0 mi NW 6.9 mph 13.8 mph N/A   Overcast
10:15 AM 66.2 °F 62.6 °F 88% 29.97 in 10.0 mi NNW 6.9 mph - N/A   Overcast
10:35 AM 68.0 °F 62.6 °F 83% 29.98 in 10.0 mi North 9.2 mph - N/A   Overcast
10:55 AM 68.0 °F 60.8 °F 78% 29.99 in 10.0 mi North 16.1 mph - N/A   Overcast
11:15 AM 66.2 °F 60.8 °F 83% 30.01 in 10.0 mi North 11.5 mph - N/A   Overcast
11:35 AM 66.2 °F 59.0 °F 78% 30.03 in 10.0 mi NNE 13.8 mph 19.6 mph N/A   Overcast
11:55 AM 66.2 °F 59.0 °F 78% 30.03 in 10.0 mi NNE 12.7 mph 19.6 mph N/A   Overcast
12:15 PM 64.4 °F 59.0 °F 83% 30.03 in 10.0 mi North 15.0 mph - N/A   Mostly Cloudy
12:35 PM 64.4 °F 59.0 °F 83% 30.03 in 10.0 mi North 12.7 mph 19.6 mph N/A   Mostly Cloudy
12:55 PM 66.2 °F 59.0 °F 78% 30.04 in 10.0 mi NNE 16.1 mph - N/A   Overcast
1:15 PM 66.2 °F 57.2 °F 73% 30.05 in 10.0 mi North 19.6 mph - N/A   Overcast
1:35 PM 64.4 °F 57.2 °F 77% 30.06 in 10.0 mi NNE 11.5 mph 21.9 mph N/A   Overcast
1:55 PM 64.4 °F 57.2 °F 77% 30.07 in 10.0 mi North 16.1 mph 23.0 mph N/A   Overcast
2:15 PM 64.4 °F 55.4 °F 73% 30.07 in 10.0 mi North 17.3 mph - N/A   Overcast
2:35 PM 64.4 °F 57.2 °F 77% 30.07 in 10.0 mi North 16.1 mph 25.3 mph N/A   Overcast
2:55 PM 64.4 °F 55.4 °F 73% 30.08 in 10.0 mi North 16.1 mph 23.0 mph N/A   Overcast
3:15 PM 64.4 °F 55.4 °F 73% 30.09 in 10.0 mi North 18.4 mph 25.3 mph N/A   Overcast
3:35 PM 64.4 °F 55.4 °F 73% 30.10 in 10.0 mi North 18.4 mph - N/A   Overcast
3:55 PM 64.4 °F 55.4 °F 73% 30.11 in 10.0 mi North 17.3 mph - N/A   Overcast
4:15 PM 64.4 °F 55.4 °F 73% 30.11 in 10.0 mi NNE 13.8 mph 20.7 mph N/A   Overcast
4:35 PM 64.4 °F 55.4 °F 73% 30.11 in 10.0 mi NNE 15.0 mph - N/A   Overcast
4:55 PM 66.2 °F 55.4 °F 68% 30.12 in 10.0 mi NNE 15.0 mph 25.3 mph N/A   Overcast
5:15 PM 66.2 °F 55.4 °F 68% 30.12 in 10.0 mi NE 15.0 mph 23.0 mph N/A   Overcast
5:35 PM 66.2 °F 55.4 °F 68% 30.12 in 10.0 mi NNE 16.1 mph 23.0 mph N/A   Overcast
5:55 PM 64.4 °F 55.4 °F 73% 30.12 in 10.0 mi NNE 16.1 mph - N/A   Overcast
6:15 PM 66.2 °F 55.4 °F 68% 30.13 in 10.0 mi NNE 12.7 mph - N/A   Overcast
6:35 PM 64.4 °F 53.6 °F 68% 30.14 in 10.0 mi NNE 13.8 mph 25.3 mph N/A   Overcast
6:55 PM 64.4 °F 53.6 °F 68% 30.15 in 10.0 mi NE 12.7 mph 19.6 mph N/A   Overcast
7:15 PM 64.4 °F 53.6 °F 68% 30.16 in 10.0 mi NNE 10.4 mph 19.6 mph N/A   Overcast
7:35 PM 64.4 °F 53.6 °F 68% 30.16 in 10.0 mi NNE 12.7 mph 23.0 mph N/A   Overcast
7:55 PM 64.4 °F 53.6 °F 68% 30.17 in 10.0 mi NE 8.1 mph - N/A   Overcast
8:15 PM 64.4 °F 53.6 °F 68% 30.18 in 10.0 mi NE 6.9 mph - N/A   Overcast
8:35 PM 62.6 °F 53.6 °F 72% 30.20 in 10.0 mi NNE 5.8 mph - N/A   Overcast
8:55 PM 62.6 °F 53.6 °F 72% 30.21 in 10.0 mi NNE 5.8 mph - N/A   Overcast
9:15 PM 62.6 °F 53.6 °F 72% 30.21 in 10.0 mi NNE 6.9 mph - N/A   Overcast
9:35 PM 62.6 °F 53.6 °F 72% 30.21 in 10.0 mi NE 8.1 mph - N/A   Overcast
9:55 PM 62.6 °F 53.6 °F 72% 30.21 in 10.0 mi NE 11.5 mph - N/A   Overcast
10:15 PM 62.6 °F 53.6 °F 72% 30.22 in 10.0 mi NE 9.2 mph 17.3 mph N/A   Overcast
10:35 PM 62.6 °F 53.6 °F 72% 30.23 in 10.0 mi NE 8.1 mph 15.0 mph N/A   Overcast
10:55 PM 62.6 °F 51.8 °F 68% 30.23 in 10.0 mi ENE 16.1 mph 24.2 mph N/A   Overcast
11:15 PM 62.6 °F 51.8 °F 68% 30.23 in 10.0 mi NE 10.4 mph - N/A   Overcast
11:35 PM 62.6 °F 51.8 °F 68% 30.24 in 10.0 mi NE 9.2 mph 17.3 mph N/A   Overcast
11:55 PM 62.6 °F 50.0 °F 63% 30.24 in 10.0 mi ENE 10.4 mph - N/A   Overcast